This is the latest recevied weather packets stored in our database for station/object KY4GW. If no packets are shown the sender has not sent any weather packets the latest 10 day(s).
| Time | Temp. | Humidity | Pressure | Rain* | Wind** | Luminosity | Snow |
|---|---|---|---|---|---|---|---|
| 1777596592 | 10.56° C | 66% | 1018.3 hPa | 0 mm | - | 0 W/m² | - |
| 1777596289 | 10.56° C | 65% | 1018.3 hPa | 0 mm | - | 0 W/m² | - |
| 1777595987 | 11.11° C | 65% | 1018.3 hPa | 0 mm | - | 1 W/m² | - |
| 1777595681 | 11.67° C | 62% | 1018.3 hPa | 0 mm | - | 2 W/m² | - |
| 1777595377 | 12.22° C | 57% | 1017.6 hPa | 0 mm | - | 2 W/m² | - |
| 1777595073 | 12.22° C | 54% | 1017.6 hPa | 0 mm | - | 4 W/m² | - |
| 1777594770 | 12.78° C | 54% | 1017.6 hPa | 0 mm | - | 5 W/m² | - |
| 1777594467 | 13.33° C | 44% | 1017.9 hPa | 0 mm | - | 8 W/m² | - |
| 1777594162 | 13.33° C | 43% | 1017.9 hPa | 0 mm | - | 10 W/m² | - |
| 1777593859 | 14.44° C | 46% | 1017.9 hPa | 0 mm | - | 13 W/m² | - |
| 1777593555 | 13.89° C | 40% | 1017.6 hPa | 0 mm | - | 16 W/m² | - |
| 1777593255 | 13.89° C | 41% | 1017.6 hPa | 0 mm | - | 18 W/m² | - |
| 1777592955 | 14.44° C | 46% | 1017.6 hPa | 0 mm | - | 20 W/m² | - |
| 1777592650 | 14.44° C | 40% | 1017.6 hPa | 0 mm | - | 23 W/m² | - |
| 1777592346 | 14.44° C | 40% | 1017.6 hPa | 0 mm | - | 25 W/m² | - |
| 1777592042 | 15° C | 39% | 1017.6 hPa | 0 mm | - | 27 W/m² | - |
| 1777591739 | 15° C | 40% | 1017.6 hPa | 0 mm | - | 28 W/m² | - |
| 1777591434 | 15° C | 37% | 1017.6 hPa | 0 mm | - | 30 W/m² | - |
| 1777591130 | 14.44° C | 41% | 1017.6 hPa | 0 mm | - | 31 W/m² | - |
| 1777590825 | 15° C | 41% | 1017.9 hPa | 0 mm | - | 33 W/m² | - |
| 1777590522 | 15° C | 39% | 1017.9 hPa | 0 mm | - | 34 W/m² | - |
| 1777590218 | 15° C | 38% | 1017.9 hPa | 0 mm | - | 35 W/m² | - |
| 1777589916 | 15° C | 38% | 1017.9 hPa | 0 mm | - | 36 W/m² | - |
| 1777589612 | 15° C | 36% | 1017.9 hPa | 0 mm | - | 37 W/m² | - |
| 1777589309 | 15° C | 37% | 1017.9 hPa | 0 mm | - | 38 W/m² | - |
* Rain latest hour (hover to see other rain measurements)
** Current wind speed in m/s (hover to see current wind gust speed)